[[{"header":{"parameterUnit":"m.s-1","parameterCategory":1,"la1":30.2991,"la2":30.254,"lo1":-89.0895,"lo2":-89.0444,"dx":0.0017,"dy":0.0017,"nx":28,"ny":28,"refTime":"2022-12-29T09:00:00:Z","depth":0,"parameterNumber":2,"parameterNumberName":"U-component_of_WINDS"},"data":[0,0,0,0,0,0,0,0,0,0,0,0,0,0,0,0,0,0,0,0,0,0,0,0,0,0,0,0,0,0,0,0,0,0,0,0,0,0,0,0,0,0,0,0,0,0,0,0,0,0,0,0,0,0,0,0,0,0,-4.1704,-4.1704,0,-4.1745,-4.1745,-4.1746,-4.1656,-4.1653,-4.165,-4.1647,-4.1686,-4.169,-4.1694,0,0,0,0,0,0,0,0,0,0,0,0,0,-4.1547,-4.155,-4.1704,-4.1704,-4.1705,-4.1745,-4.1745,-4.1746,-4.1656,-4.1653,-4.1649,-4.1646,-4.1685,-4.1689,-4.1694,0,0,0,0,0,0,0,0,0,0,0,0,0,-4.1604,-4.1551,-4.1704,-4.1665,-4.1662,-4.1744,-4.1745,-4.1746,-4.1657,-4.1653,-4.1648,-4.1644,-4.1684,-4.1689,-4.1695,-4.1815,0,0,-4.1712,-4.1714,0,0,0,0,0,0,0,0,-4.1601,-4.161,-4.167,-4.1668,-4.1665,-4.1691,-4.1704,-4.1769,-4.1658,-4.1659,-4.1647,-4.1642,-4.1691,-4.1696,-4.1713,-4.1817,-4.1819,-4.1712,-4.1715,-4.1718,-4.1719,0,0,0,0,0,0,0,-4.1597,-4.1608,-4.172,-4.1671,-4.1668,-4.1645,-4.1649,-4.1716,-4.1699,-4.1659,-4.1652,-4.1658,-4.1689,-4.1708,-4.1713,-4.1819,-4.1712,-4.1717,-4.172,-4.1722,-4.2025,-4.203,0,0,0,0,0,0,-4.1598,-4.1605,-4.1718,-4.1721,-4.1622,-4.1652,-4.1655,-4.1687,-4.1698,-4.1695,-4.1662,-4.1654,-4.17,-4.1707,-4.1714,-4.1856,-4.1718,-4.1723,-4.1726,-4.202,-4.2026,-4.2031,0,0,0,0,0,0,-4.1595,-4.1609,-4.1717,-4.1661,-4.1673,-4.1659,-4.1695,-4.169,-4.1709,-4.17,-4.1697,-4.1685,-4.1697,-4.1706,-4.1791,-4.1856,-4.1725,-4.1731,-4.2015,-4.2022,-4.2029,-4.2141,0,0,0,0,0,0,-4.1591,-4.1609,-4.1655,-4.1663,-4.1677,-4.1794,-4.1699,-4.1694,-4.1719,-4.1709,-4.1721,-4.1718,-4.1694,-4.1783,-4.1797,-4.1861,-4.1735,-4.2009,-4.2018,-4.2026,-4.2131,-4.2151,-4.2168,0,0,0,0,0,-4.1586,-4.1684,-4.1658,-4.1672,-4.1734,-4.1798,-4.1805,-4.1777,-4.1724,-4.177,-4.1765,-4.1718,-4.1847,-4.1793,-4.1807,-4.1874,-4.2005,-4.2015,-4.2026,-4.2123,-4.2147,-4.2167,0,0,0,0,0,0,-4.1682,-4.1684,-4.1655,-4.1759,-4.1779,-4.1783,-4.1839,-4.1803,-4.1838,-4.1827,-4.1789,-4.1792,-4.1884,-4.1888,-4.1827,-4.1992,-4.1917,-4.1931,-4.1986,-4.2009,-4.2027,-4.2023,-4.174,0,0,0,0,0,-4.1716,-4.1768,-4.1767,-4.1859,-4.1871,-4.1854,-4.188,-4.1857,-4.1876,-4.1884,-4.1884,-4.1904,-4.1949,-4.1979,-4.202,-4.2132,-4.2133,-4.2186,-4.2204,-4.2219,-4.2231,-4.229,-4.2313,-4.2066,-4.2066,-4.2066,0,0,-4.1785,-4.1793,-4.1828,-4.1878,-4.1891,-4.1946,-4.1861,-4.1922,-4.1962,-4.1892,-4.1973,-4.1975,-4.1994,-4.2093,-4.2137,-4.2099,-4.23,-4.2232,-4.2244,-4.2248,-4.2303,-4.2327,-4.2348,-4.2073,-4.2072,-4.2071,0,0,-4.1938,-4.195,-4.2028,-4.2043,-4.2064,-4.2053,-4.2072,-4.2082,-4.2081,-4.2161,-4.211,-4.2157,-4.2235,-4.2251,-4.227,-4.2433,-4.239,-4.2447,-4.2541,-4.26,-4.2619,-4.2636,-4.2694,-4.2715,-4.2459,-4.246,-4.246,0,-4.2021,-4.2102,-4.2072,-4.2137,-4.2161,-4.2103,-4.2181,-4.2197,-4.223,-4.2247,-4.2205,-4.2303,-4.2312,-4.2414,-4.2454,-4.2471,-4.2491,-4.2444,-4.2619,-4.2636,-4.2651,-4.2706,-4.2727,-4.2466,-4.2466,-4.2465,-4.2464,0,-4.2203,-4.226,-4.232,-4.2355,-4.2386,-4.2457,-4.2438,-4.2473,-4.2447,-4.244,-4.2523,-4.2532,-4.2574,-4.2597,-4.2572,-4.2696,-4.2672,-4.2626,-4.2549,-4.2682,-4.2732,-4.2753,-4.2476,-4.2474,-4.2472,-4.247,0,0,-4.2415,-4.2435,-4.2457,-4.2473,-4.2493,-4.2536,-4.2606,-4.2648,-4.2678,-4.2704,-4.2761,-4.283,-4.2787,-4.2808,-4.2785,-4.2837,-4.2965,-4.2783,-4.2783,-4.2816,-4.3101,-4.3135,-4.3159,-4.2938,-4.2942,-4.2945,-4.3099,0,-4.2566,-4.2686,-4.2662,-4.2779,-4.2831,-4.2778,-4.2838,-4.2857,-4.2853,-4.2896,-4.2892,-4.2941,-4.2881,-4.2894,-4.2943,-4.2939,-4.3021,-4.2927,-4.2989,-4.2991,-4.2984,-4.3186,-4.3221,-4.3367,-4.3119,-4.3122,-4.3124,0,-4.2758,-4.2793,-4.2915,-4.2929,-4.295,-4.3004,-4.3042,-4.3085,-4.3105,-4.3099,-4.3124,-4.3091,-4.316,-4.3085,-4.3178,-4.3115,-4.3139,-4.3141,-4.3146,-4.3149,-4.3064,-4.3193,-4.3412,-4.3434,-4.3155,-4.3153,-4.315,0,-4.29,-4.2977,-4.306,-4.3076,-4.3093,-4.3133,-4.3142,-4.3159,-4.3186,-4.3219,-4.3237,-4.3277,-4.3299,-4.333,-4.331,-4.3257,-4.3407,-4.3329,-4.3402,-4.3403,-4.3434,-4.3432,-4.3659,-4.3453,-4.3452,-4.3452,-4.3452,0,-4.307,-4.3147,-4.3124,-4.3175,-4.326,-4.3232,-4.3317,-4.3319,-4.3335,-4.3385,-4.3342,-4.339,-4.3361,-4.3406,-4.3391,-4.347,-4.348,-4.3476,-4.3471,-4.3479,-4.348,-4.3493,-4.3482,-4.3458,-4.3456,-4.3455,-4.3454,0,-4.3241,-4.3229,-4.3316,-4.3327,-4.3332,-4.3394,-4.3402,-4.345,-4.3444,-4.3508,-4.3522,-4.3512,-4.3564,-4.3547,-4.3602,-4.3592,-4.3692,-4.3675,-4.3686,-4.3681,-4.3754,-4.3747,-4.3996,-4.4026,-4.3802,-4.3805,-4.3806,0,-4.3349,-4.3407,-4.3425,-4.3457,-4.3469,-4.352,-4.3549,-4.3525,-4.3556,-4.3585,-4.3629,-4.3677,-4.3714,-4.38,-4.3797,-4.3839,-4.3821,-4.3906,-4.3827,-4.3834,-4.3821,-4.3817,-4.3822,-4.392,-4.3923,-4.3925,-4.3927,0,-4.3543,-4.3535,-4.3578,-4.362,-4.3656,-4.3687,-4.3715,-4.3743,-4.372,-4.3758,-4.3811,-4.384,-4.3898,-4.3946,-4.3985,-4.3993,-4.3956,-4.3952,-4.3971,-4.3979,-4.3982,-4.398,-4.3727,-4.3946,-4.3944,-4.3943,-4.3942,-4.3941,-4.3684,-4.3734,-4.3755,-4.3805,-4.3824,-4.3851,-4.3896,-4.3897,-4.3941,-4.3987,-4.397,-4.4031,-4.4051,-4.41,-4.4114,-4.4161,-4.4128,-4.4156,-4.4162,-4.4169,-4.4178,-4.3977,-4.4168,-4.4168,-4.4167,-4.4167,-4.4166,0,-4.3874,-4.3886,-4.3933,-4.3973,-4.4013,-4.3978,-4.4007,-4.4042,-4.4096,-4.4119,-4.4157,-4.4219,-4.4266,-4.4268,-4.4312,-4.435,-4.4334,-4.4362,-4.4358,-4.436,-4.4205,-4.4184,-4.4374,-4.4374,-4.4374,-4.4374,-4.4374,-4.4374,-4.3978,-4.4059,-4.4055,-4.4145,-4.4156,-4.4216,-4.4236,-4.4261,-4.4279,-4.435,-4.439,-4.4392,-4.4406,-4.4451,-4.4493,-4.4493,-4.451,-4.4544,-4.4537,-4.4392,-4.4371,-4.4351,-4.4331,-4.4549,-4.4549,-4.4688,-4.4689,-4.469]},{"header":{"parameterUnit":"m.s-1","parameterCategory":1,"la1":30.2991,"la2":30.254,"lo1":-89.0895,"lo2":-89.0444,"dx":0.0017,"dy":0.0017,"nx":28,"ny":28,"refTime":"2022-12-29T09:00:00:Z","depth":0,"parameterNumber":3,"parameterNumberName":"V-component_of_WINDS"},"data":[0,0,0,0,0,0,0,0,0,0,0,0,0,0,0,0,0,0,0,0,0,0,0,0,0,0,0,0,0,0,0,0,0,0,0,0,0,0,0,0,0,0,0,0,0,0,0,0,0,0,0,0,0,0,0,0,0,0,-0.1328,-0.1329,0,-0.136,-0.136,-0.136,-0.14,-0.1401,-0.1402,-0.1402,-0.1435,-0.1435,-0.1435,0,0,0,0,0,0,0,0,0,0,0,0,0,-0.1302,-0.1302,-0.1328,-0.1329,-0.1329,-0.136,-0.136,-0.1361,-0.14,-0.1401,-0.1402,-0.1403,-0.1435,-0.1435,-0.1435,0,0,0,0,0,0,0,0,0,0,0,0,0,-0.1321,-0.1302,-0.1328,-0.1353,-0.1355,-0.136,-0.136,-0.1361,-0.14,-0.1401,-0.1402,-0.1403,-0.1434,-0.1435,-0.1435,-0.1418,0,0,-0.1436,-0.1437,0,0,0,0,0,0,0,0,-0.132,-0.1322,-0.1349,-0.1351,-0.1354,-0.1377,-0.1363,-0.138,-0.14,-0.1383,-0.1402,-0.1403,-0.1415,-0.1417,-0.1421,-0.142,-0.1421,-0.1436,-0.1437,-0.1437,-0.1437,0,0,0,0,0,0,0,-0.1319,-0.1321,-0.1341,-0.1349,-0.1352,-0.1362,-0.1365,-0.1366,-0.1393,-0.1385,-0.1388,-0.1391,-0.1416,-0.142,-0.1422,-0.1422,-0.1436,-0.1437,-0.1437,-0.1437,-0.1405,-0.1404,0,0,0,0,0,0,-0.1314,-0.132,-0.134,-0.1342,-0.1339,-0.1361,-0.1366,-0.1369,-0.1393,-0.1398,-0.139,-0.1392,-0.1419,-0.1421,-0.1423,-0.1402,-0.1437,-0.1437,-0.1437,-0.1406,-0.1405,-0.1404,0,0,0,0,0,0,-0.1313,-0.1315,-0.1339,-0.1331,-0.1335,-0.1361,-0.1364,-0.1369,-0.1373,-0.1397,-0.1402,-0.1389,-0.142,-0.1422,-0.1418,-0.1404,-0.1437,-0.1438,-0.1408,-0.1406,-0.1405,-0.1363,0,0,0,0,0,0,-0.1312,-0.1315,-0.1309,-0.1331,-0.1335,-0.1334,-0.1363,-0.1369,-0.1373,-0.1377,-0.1398,-0.1402,-0.1421,-0.1418,-0.1419,-0.1405,-0.1438,-0.1409,-0.1407,-0.1405,-0.1365,-0.136,-0.1355,0,0,0,0,0,-0.1311,-0.1297,-0.1308,-0.1311,-0.1329,-0.1333,-0.1336,-0.1357,-0.1372,-0.1366,-0.1381,-0.1401,-0.1406,-0.1417,-0.1419,-0.1405,-0.141,-0.1408,-0.1405,-0.1368,-0.1361,-0.1355,0,0,0,0,0,0,-0.1273,-0.13,-0.1314,-0.1306,-0.1317,-0.134,-0.1333,-0.135,-0.1357,-0.136,-0.1387,-0.1392,-0.1384,-0.1394,-0.1406,-0.1388,-0.1411,-0.1409,-0.1382,-0.1375,-0.137,-0.1367,-0.1438,0,0,0,0,0,-0.1264,-0.1265,-0.1289,-0.128,-0.1284,-0.1307,-0.131,-0.1326,-0.1338,-0.1343,-0.1359,-0.1369,-0.1373,-0.1375,-0.138,-0.1367,-0.1371,-0.1359,-0.1354,-0.1349,-0.1347,-0.1338,-0.1332,-0.1396,-0.1396,-0.1396,0,0,-0.1245,-0.126,-0.1259,-0.1272,-0.1283,-0.1282,-0.1311,-0.1311,-0.131,-0.1343,-0.134,-0.1351,-0.1365,-0.1356,-0.1353,-0.1364,-0.133,-0.1346,-0.1342,-0.1342,-0.1335,-0.1329,-0.1323,-0.1394,-0.1395,-0.1395,0,0,-0.121,-0.1222,-0.1215,-0.1224,-0.1238,-0.1253,-0.1251,-0.1271,-0.128,-0.1277,-0.13,-0.13,-0.1307,-0.1315,-0.132,-0.1285,-0.1303,-0.1286,-0.1258,-0.1249,-0.1244,-0.124,-0.1225,-0.122,-0.1283,-0.1283,-0.1283,0,-0.1184,-0.1185,-0.1209,-0.1206,-0.121,-0.1239,-0.123,-0.1238,-0.1254,-0.1255,-0.1269,-0.1275,-0.1287,-0.1279,-0.127,-0.1274,-0.1271,-0.1283,-0.1243,-0.1239,-0.1235,-0.1221,-0.1216,-0.1281,-0.1281,-0.1281,-0.1282,0,-0.1152,-0.1152,-0.1144,-0.1157,-0.1161,-0.1155,-0.1177,-0.1177,-0.1192,-0.1205,-0.12,-0.1215,-0.1222,-0.1222,-0.1237,-0.1215,-0.1221,-0.1238,-0.1261,-0.1226,-0.1214,-0.1209,-0.1278,-0.1278,-0.1279,-0.128,0,0,-0.1095,-0.1119,-0.1115,-0.112,-0.1138,-0.1138,-0.1133,-0.1139,-0.1138,-0.1147,-0.1142,-0.1146,-0.1161,-0.1166,-0.1183,-0.1175,-0.1143,-0.1193,-0.1194,-0.1181,-0.1117,-0.1102,-0.1096,-0.1155,-0.1155,-0.1154,-0.1115,0,-0.1061,-0.1054,-0.1073,-0.1061,-0.1059,-0.1086,-0.1081,-0.109,-0.1102,-0.1102,-0.1116,-0.1117,-0.1138,-0.1141,-0.1135,-0.1148,-0.113,-0.1152,-0.115,-0.1149,-0.1144,-0.109,-0.1075,-0.1038,-0.111,-0.1109,-0.1109,0,-0.1022,-0.1027,-0.1014,-0.1029,-0.1029,-0.1025,-0.103,-0.1031,-0.1041,-0.105,-0.1055,-0.1073,-0.1068,-0.109,-0.1083,-0.1096,-0.1097,-0.1103,-0.1102,-0.1102,-0.1126,-0.1086,-0.1026,-0.102,-0.1102,-0.1102,-0.1103,0,-0.0978,-0.0982,-0.0974,-0.0978,-0.0996,-0.0992,-0.0999,-0.1011,-0.1012,-0.1018,-0.1018,-0.1023,-0.1025,-0.1028,-0.1046,-0.1061,-0.1035,-0.106,-0.1041,-0.104,-0.1034,-0.1034,-0.0971,-0.1037,-0.1037,-0.1037,-0.1037,0,-0.0938,-0.0928,-0.0954,-0.0949,-0.0938,-0.0961,-0.0949,-0.0959,-0.0969,-0.0965,-0.0989,-0.0985,-0.101,-0.1008,-0.1023,-0.1012,-0.1014,-0.102,-0.1024,-0.1017,-0.1016,-0.1016,-0.1019,-0.1035,-0.1036,-0.1036,-0.1036,0,-0.0887,-0.0905,-0.0897,-0.0914,-0.0918,-0.0909,-0.0924,-0.0919,-0.0932,-0.0926,-0.0926,-0.0946,-0.0945,-0.0964,-0.0968,-0.0977,-0.0959,-0.0969,-0.0955,-0.0958,-0.0937,-0.0938,-0.0872,-0.0863,-0.0936,-0.0935,-0.0934,0,-0.0859,-0.0852,-0.0868,-0.0866,-0.0872,-0.0871,-0.0872,-0.0893,-0.0893,-0.0903,-0.0897,-0.0897,-0.0899,-0.0896,-0.091,-0.0912,-0.0921,-0.0897,-0.0921,-0.0913,-0.0917,-0.0917,-0.0915,-0.0892,-0.0891,-0.089,-0.089,0,-0.0807,-0.0816,-0.0816,-0.0819,-0.0819,-0.0823,-0.0828,-0.0826,-0.0849,-0.0848,-0.0847,-0.0848,-0.085,-0.0849,-0.0854,-0.0861,-0.0878,-0.0882,-0.0877,-0.087,-0.0861,-0.0863,-0.094,-0.0883,-0.0884,-0.0884,-0.0885,-0.0885,-0.0766,-0.0759,-0.0768,-0.0768,-0.0773,-0.0777,-0.0772,-0.0784,-0.0783,-0.0786,-0.0799,-0.0794,-0.0803,-0.081,-0.0815,-0.0812,-0.0823,-0.0817,-0.0815,-0.0813,-0.0808,-0.0863,-0.0813,-0.0813,-0.0813,-0.0814,-0.0814,0,-0.0713,-0.0719,-0.0718,-0.0724,-0.0723,-0.0739,-0.0745,-0.0743,-0.0738,-0.0745,-0.0745,-0.0743,-0.0742,-0.0755,-0.0756,-0.075,-0.0758,-0.075,-0.0749,-0.075,-0.0799,-0.0802,-0.0743,-0.0743,-0.0743,-0.0743,-0.0743,-0.0743,-0.0685,-0.0674,-0.0683,-0.0675,-0.0682,-0.0677,-0.0679,-0.0681,-0.0686,-0.0682,-0.0681,-0.069,-0.0698,-0.0699,-0.0699,-0.0703,-0.0701,-0.0689,-0.0695,-0.074,-0.0747,-0.0754,-0.0756,-0.0689,-0.0689,-0.0647,-0.0646,-0.0646]}]]